sat.trackr.live / text

‹ back to catalog

STARLINK-31509

NORAD 59533 · 2024-073Y

PAYLOAD ACTIVE UNKNOWN

§ Identity

Operator
Country
US
Launch date
2024-04-17
Launch site
AFETR
Launch vehicle
Mass (kg)
RCS (m²)

Purposes: comms

External: N2YO · Heavens-Above · Gunter

§ Orbital elements

Epoch: 2026-09-21T12:55:10.348608Z

Period
94.27 min
Inclination
43.0036°
Eccentricity
0.0001246
Mean motion
15.27585725 rev/d
Perigee alt
482.2 km
Apogee alt
483.9 km
Semi-major
6,861.2 km
B*
5.8845e-5
RAAN
292.3647°
Arg perigee
256.0729°
Mean anomaly
103.9985°
Rev number
13,612

§ Raw data

STARLINK-315091 59533U 24073Y   26264.53831422  .00001358  00000+0  58845-4 0  99992 59533  43.0036 292.3647 0001246 256.0729 103.9985 15.27585725136125

JSON: /api/v1/satellites/59533 · /tle

For live sub-satellite position, see the globe view (requires WebGL).

§ Visibility from observer

Set your observer location to see the next 7 days of passes ≥ 10°. The values pass through the URL so the page stays shareable.

No JS? Fill the form by hand. The geolocation button needs JavaScript.